COSMOS 886 DEB, 9822

Orbit data source: Space-Track

COSMOS 886 DEB, 9822 is space debris in LEO originally from a launch on Mon, 27 Dec 1976 UTC launched from the Tyuratam Missile And Space Complex (TTMTR). Debris objects in space refer to the collection of defunct objects orbiting the Earth. Examples of debris include non-operational satellites, rocket bodies, and fragments generated from explosions, collisions, or faulty payload assembly.

Loading next visibility...
Identifier
9822, 1976-126AJ
Orbit
LEO
Country
Flag of CISCIS
Related business
Manufacturer
Unknown
Mission
Spacecraft
Bus & Motor
Unknown
Mass
Unknown
Launch date (UTC)
1976-12-27 (49 years ago)
Launch vehicle
Unknown
Launch site
Tyuratam Missile And Space Complex (TTMTR)
Object type
Payload
Rocket body
Debris
Shape & HBR
Unknown shape, 0.1 m
Radar Cross Section
Medium (>0.1 m² and <1 m²)

Expand to show TLE details & history
Last TLE update: 20 hours ago

TLE from 20 hours ago
0 COSMOS 886 DEB
1 09822U 76126AJ  26174.97062980  .00001035  00000-0  52556-3 0  9999
2 09822  65.7819  40.5237 0910045  88.3158 282.1749 12.96728727308322
Epoch: 2026-06-23T23:17Z
TLE epoch observation values (Epoch: 2026-06-23T23:17:42.414Z)
Latitude
-0.00007°
Longitude
138.96239°
Altitude
1,191.977 km
Speed
7.298 km/s
True Right ascension
02h 42m 05s
True Declination
0° 00' 00"
Sunlit
Object was in daylight at epoch
Visualization orbit readout
Latitude
Unknown
Longitude
Unknown
Altitude
Unknown
Speed
Unknown
Apparent Right ascension
Unknown
Apparent Declination
Unknown
Sunlit
N/A
Visualization observer readout
Local Sidereal Time
06:16:26
Azimuth
Unknown
Elevation
Unknown
Doppler factor
Unknown
Orbital elements
Apogee altitude
1,969.829 km
Perigee altitude
577.163 km
Semi-major axis
7,651.633 km
Eccentricity
0.091
Inclination
65.7819°
RAAN
40.5237°
Arg. of periapsis
88.3158°
True anomaly
271.78813°
Mean anomaly
282.1749°
Eccentric anomaly
276.99959°
Mean motion
3.24274 °/min
Orbital period
111.02 mins
BSTAR
0.00052556
Loading maneuver chart data...
Computing Atmospheric mass density...

Documentation

Showing up to 5 results
|